Showing default

TIBA-1, 44800

Orbit data source: Space-Track

TIBA-1, 44800 is a payload satellite owned by EgSA (EG) in GEO that was launched on Tue, 26 Nov 2019 UTC via an ARIANE 5ECA launch vehicle from the French Guiana (FRGUI). Payload-class satellites include a variety of spacecraft equipped with specific instruments for various scientific and technological missions. These include communications satellites like Starlink; space stations such as the ISS; scientific satellites like the Hubble; Earth observation satellites from companies like Planet Labs, Umbra, and HawkEye 360; GPS; miniature CubeSats for education and research; and military/defense satellites.

Not visible in the next 10 days
Identifier
44800, 2019-080A
Orbit
GEO
Last TLE update
9 hours ago
Origin
Manufacturer
Airbus/Toulouse
Mission
Operational Civil Communications
Bus & Motor
EUROSTAR 3000, R-4D?
Mass
5,600 kg wet, ~3,000 kg dry
Launch date (UTC)
2019-11-26 (5 years ago)
Launch vehicle
ARIANE 5ECA
Launch site
French Guiana (FRGUI)
Object type
Payload
Rocket body
Debris
Shape & HBR
Box + 2 Pan, Unknown HBR
Radar Cross Section
33.163 m²

Expand to show TLE details & history

TLE from 9 hours ago
0 TIBA-1
1 44800U 19080A   25128.88920368  .00000161  00000-0  00000-0 0  9994
2 44800   0.0600  16.3965 0001982  33.7338 172.4303  1.00273200 20008
Epoch: 2025-05-08T21:20Z
Definitive object data (Epoch: 2025-05-08T21:20:27.197Z)
Latitude
-0.04028°
Longitude
35.49412°
Altitude
35,794.019 km
Speed
3.074 km/s
True Right ascension
14h 50m 14s
True Declination
0° 02' 25"
Sunlit
Object was in daylight at TLE epoch
Visualization TLE readout
Latitude
0.00547°
Longitude
168.78722°
Altitude
35,780.725 km
Speed
3.075 km/s
Apparent Right ascension
23h 58m 54s
Apparent Declination
-5° 02' 49"
Sunlit
Object is in daylight
Visualization observer readout
Local Sidereal Time
14:21:02
Azimuth
51.98° ENE
Elevation
-42.7°
Doppler factor
1
Orbital elements
Apogee altitude
35,795.626 km
Perigee altitude
35,778.911 km
Semi-major axis
42,165.406 km
Eccentricity
0.0001982
Inclination
0.06°
RAAN
16.3965°
Arg. of periapsis
33.7338°
True anomaly
172.43329°
Mean anomaly
172.4303°
Eccentric anomaly
172.4318°
Mean motion
0.25067 °/min
BSTAR
Unknown
Orbital period
1436.13 mins
Loading historical data...
44800 neighbors
Loading maneuver chart data...
Loading SW <> Apogee altitude chart data...
Loading historical data...
Loading historical data...
Loading historical data...
Loading historical data...
Loading historical data...
Loading historical data...
Loading historical data...
Other satellites on launch #80 in the year 2019 (2019-11-26 UTC)

TIBA-1 Visibility forecast

Observer location: undefined°, undefined°

TIBA-1 is not visible in the next 10 days
Span
Click to sort rows by Start time (UTC) header in descending order
Start Az.
Max El. time (UTC)
Max El. Az.
Max El.
End time (UTC)
End Az.
|